Temperature
30 31 31 32 32 32 32 31 31 31 32 31 31 31 30 29 28 27 26 26 25 24 24 23 22 21 21 20 20 20 20 19 19 19 19 19 19 19 19 19 18 18 18 18
31 31 32 32 32 31 31 31 31 32 31 31 31 31 31 30 28 28 27 26 25 25 24 23 22 22 21 21 20 20 20 20 20 19 19 19 19 19 19 19 18 18 18 18
31 32 32 31 31 31 31 31 31 31 31 31 31 30 30 30 28 28 27 27 26 25 25 23 22 22 22 21 21 21 20 20 20 20 19 19 19 19 19 19 18 18 18 18
31 32 31 31 31 31 31 32 31 31 31 31 31 30 30 30 29 29 28 27 26 26 25 24 23 22 22 22 21 21 21 20 20 20 19 19 19 19 19 19 19 18 18 18
31 31 31 31 31 31 32 32 31 31 31 31 31 31 31 30 30 29 29 27 27 26 25 24 23 23 22 22 21 21 21 21 20 20 20 19 19 19 19 19 19 19 18 18
31 32 31 31 32 31 31 31 31 31 31 30 31 30 30 31 30 30 29 28 27 26 25 24 23 22 22 22 21 21 21 21 20 20 20 20 19 19 19 19 19 19 18 18
30 31 31 31 31 31 31 31 30 30 30 30 31 30 30 30 30 29 29 28 26 26 25 24 23 22 22 21 21 21 21 21 20 20 20 19 19 19 19 19 18 18 18 18
30 30 31 31 31 31 31 31 30 29 30 31 30 30 31 30 29 28 28 27 26 25 25 24 23 22 21 21 21 21 21 20 20 20 20 19 19 19 19 19 18 18 18 18
30 30 31 31 31 31 31 31 32 31 31 30 31 31 30 30 29 29 28 27 26 25 24 24 23 22 21 21 21 21 20 20 20 20 20 19 19 19 19 18 18 18 18 18
30 29 31 30 31 30 31 31 31 31 29 29 30 30 31 30 29 29 28 27 26 24 24 23 23 22 21 21 21 21 20 20 20 20 19 19 19 19 19 18 18 19 18 18
30 29 30 30 30 30 30 30 30 31 30 29 29 30 31 30 30 29 28 27 25 24 24 23 22 22 22 21 21 20 20 19 19 19 19 19 19 19 19 19 18 18 18 18
29 30 29 30 30 30 30 30 30 30 29 29 30 30 30 30 30 29 28 26 25 24 23 23 22 21 21 21 21 20 20 19 19 19 19 18 18 18 18 18 18 18 18 18
28 29 28 29 29 29 29 30 30 30 30 30 29 30 30 29 29 28 26 25 24 23 23 22 22 21 21 21 20 20 20 19 19 18 18 18 18 18 18 18 18 18 18 18
27 28 28 28 29 29 29 29 29 29 30 30 30 30 30 29 28 28 26 24 24 23 22 22 21 20 20 20 19 19 19 19 19 18 18 18 18 18 18 18 18 18 18 18
27 28 28 28 29 29 29 29 29 29 29 29 30 30 29 29 28 27 25 24 23 23 22 21 21 20 19 19 19 19 19 19 18 18 18 18 18 18 18 18 17 17 17 17
26 27 27 27 28 28 28 29 29 29 29 29 29 29 30 28 27 26 25 24 23 22 22 21 20 20 19 19 19 19 19 18 18 18 18 17 18 17 17 17 17 17 17 17
26 26 26 27 28 27 27 28 29 29 29 29 29 29 28 28 27 26 25 24 23 22 22 21 20 20 19 19 19 19 18 18 18 18 18 17 17 17 17 17 17 17 17 16
24 24 26 26 26 25 28 29 29 28 28 28 28 28 27 27 26 25 24 24 23 22 21 21 20 20 19 19 19 18 18 18 17 17 17 17 17 17 17 17 17 17 16 16
25 24 25 26 26 26 27 27 27 27 27 27 27 27 26 25 25 25 24 23 22 22 21 20 20 20 19 18 18 18 18 17 17 17 17 17 17 16 16 16 16 16 16 16
24 23 24 25 25 25 26 26 26 26 26 25 25 25 25 25 27 26 23 22 22 21 20 20 19 19 19 18 18 18 17 17 17 17 16 16 16 16 16 16 16 16 16 15
23 23 23 24 25 26 25 25 25 25 25 24 24 24 24 24 24 23 22 21 20 20 20 19 19 19 18 18 17 17 17 17 16 16 16 16 16 16 16 16 15 15 15 15
24 24 23 24 24 25 24 24 24 24 23 22 22 22 22 22 22 21 21 20 19 19 19 19 18 18 18 17 17 17 17 16 16 16 16 16 15 15 15 15 15 15 15 15
23 23 24 24 24 22 22 23 22 22 21 21 21 21 21 21 21 20 20 19 19 19 18 18 18 18 17 17 17 17 16 16 16 16 15 15 15 15 15 15 15 14 14 14
22 21 22 22 23 22 21 21 21 20 20 20 20 20 20 20 20 19 19 19 18 18 18 17 17 17 17 17 16 16 16 16 16 15 15 15 15 15 15 14 14 14 14 14
21 21 21 21 22 21 21 20 20 19 19 19 19 19 19 19 19 19 18 18 17 17 17 17 17 17 16 16 16 16 16 16 15 15 15 15 15 15 14 14 14 14 14 14
21 21 21 21 20 20 20 19 19 18 19 19 18 18 18 18 18 18 18 17 17 16 16 16 16 16 16 16 16 16 15 15 15 15 15 15 14 14 14 14 14 14 13 13
Wind_Speed
7 8 8 6 6 5 5 5 4 1 0 4 4 3 3 7 9 9 10 10 10 10 9 9 9 9 10 10 10 9 8 8 6 5 5 4 4 4 3 3 3 3 3 2
9 11 8 6 6 7 7 7 4 2 1 3 3 3 3 6 8 9 10 11 11 10 10 9 10 10 10 10 10 10 9 8 8 6 5 4 3 3 3 2 3 3 3 3
13 6 5 7 8 9 9 7 5 4 2 5 4 4 4 5 7 7 8 9 10 10 10 10 10 10 10 10 11 10 9 9 9 7 5 4 3 4 3 3 3 3 4 3
11 9 7 9 10 10 9 5 6 6 7 4 5 4 3 5 6 8 9 9 10 10 10 10 10 11 11 11 10 10 9 9 8 8 7 7 6 5 4 3 3 3 4 4
10 9 9 10 8 9 6 3 6 6 7 6 6 6 2 4 5 6 8 9 9 9 9 9 9 10 10 10 9 9 9 9 8 8 8 7 6 5 4 4 4 4 4 4
11 8 8 8 6 7 5 5 6 8 9 7 6 7 3 2 3 4 5 7 8 8 8 8 8 8 8 9 8 8 8 8 8 8 8 8 7 6 5 5 4 5 4 4
13 11 9 8 8 9 10 10 7 8 8 6 3 5 3 1 1 2 3 5 7 7 8 8 7 7 8 8 8 8 8 8 8 8 8 9 8 8 8 7 5 5 4 5
13 12 11 9 10 9 11 12 9 8 7 5 5 5 2 1 1 2 3 4 5 6 7 7 7 7 7 8 8 8 8 7 7 8 8 8 8 8 7 7 6 6 5 4
10 10 8 7 8 10 10 11 10 10 11 9 6 4 4 3 3 4 4 5 5 5 5 6 7 7 7 7 7 7 7 7 7 7 7 8 8 8 7 6 7 6 5 4
9 9 8 7 8 8 9 9 9 10 9 10 9 9 5 4 4 5 4 4 4 5 6 6 6 6 6 6 6 6 6 6 6 6 6 6 7 7 7 6 6 6 5 5
11 11 9 9 10 10 9 10 10 10 10 11 10 5 0 3 4 4 4 4 5 6 6 6 5 5 5 5 5 5 5 5 5 5 6 5 6 6 7 6 6 6 6 6
9 10 11 11 8 7 10 10 11 11 10 10 12 7 1 1 2 3 4 5 5 6 6 6 5 5 4 4 4 4 4 5 5 5 5 6 5 6 7 7 7 7 6 6
6 9 11 12 11 9 10 11 11 12 11 12 13 7 4 3 3 4 4 5 6 6 6 6 5 4 4 3 3 3 4 4 4 4 5 5 6 6 7 7 7 7 6 6
6 11 12 13 9 8 10 11 11 13 13 13 13 10 6 5 4 4 5 5 6 6 6 6 5 4 4 3 3 3 3 3 4 4 5 5 5 6 6 6 6 6 6 6
7 12 13 12 10 11 12 12 12 13 14 14 12 10 8 6 5 5 5 6 6 7 7 6 5 5 4 3 3 2 2 2 2 3 4 4 4 5 5 6 6 6 6 6
6 9 10 12 12 12 14 14 14 14 14 15 14 12 6 3 3 5 6 7 7 7 7 7 6 5 4 4 3 3 2 2 2 3 3 2 3 4 4 4 5 5 5 5
7 8 9 12 11 13 16 15 15 13 12 13 14 9 5 5 5 6 7 8 8 8 7 7 6 5 4 4 4 3 3 3 3 3 2 2 3 3 4 4 4 5 5 5
9 9 8 10 9 15 9 5 9 10 10 10 10 8 7 6 5 5 6 7 7 7 7 6 6 5 4 3 3 3 3 3 3 3 3 3 3 3 3 4 4 5 5 5
11 10 9 10 14 13 8 5 7 9 10 6 8 8 7 5 5 5 5 5 6 6 6 6 6 5 5 4 3 3 3 3 3 3 3 3 3 3 3 3 4 4 4 5
10 11 11 11 12 13 6 3 3 7 9 2 4 6 5 5 8 4 2 4 5 5 5 5 5 5 4 4 4 3 3 3 3 3 3 3 3 3 3 3 4 4 4 4
10 10 14 14 14 10 2 2 5 9 3 2 3 3 4 5 5 3 1 3 4 4 4 5 5 5 4 4 4 4 3 3 2 2 2 3 3 3 3 3 3 3 3 3
10 10 11 12 14 10 2 3 4 2 2 3 3 3 3 4 3 2 1 3 4 4 5 5 4 4 4 4 4 4 3 2 2 2 2 2 3 3 3 2 2 3 3 4
8 6 6 7 5 2 3 2 1 1 2 3 3 3 3 3 2 1 1 2 3 4 4 4 4 4 4 4 5 4 3 2 2 2 2 2 2 2 2 3 3 3 3 3
6 3 5 5 5 4 3 2 1 2 3 3 3 3 3 3 2 2 2 2 3 3 4 4 4 4 3 3 4 3 3 3 3 3 3 2 2 3 2 3 3 3 3 3
4 5 6 7 5 3 4 3 2 3 3 3 3 3 3 3 2 2 2 2 2 2 3 3 4 4 3 3 3 3 3 4 3 3 3 3 3 2 2 2 2 3 1 2
8 8 8 6 3 4 3 2 3 3 4 3 3 3 3 2 1 1 2 2 2 2 3 3 3 3 3 3 3 2 3 3 4 3 3 3 2 2 3 2 2 2 0 2
Wind_Direction
207 225 222 227 247 283 286 282 284 319 312 248 249 262 179 178 192 190 188 187 189 191 185 183 187 187 187 190 194 200 203 194 196 201 207 210 212 218 212 206 196 199 202 197
216 225 235 248 250 253 257 262 265 240 169 257 265 260 199 184 198 197 195 194 195 192 186 186 190 192 193 193 196 199 204 202 203 202 211 219 225 227 220 211 181 200 199 211
231 224 224 235 237 243 248 261 277 286 235 217 257 226 191 176 192 196 199 199 200 198 194 191 195 200 199 198 200 203 204 204 207 206 208 206 206 225 212 205 196 199 203 211
233 232 230 237 239 249 248 254 264 259 255 244 253 264 192 187 188 196 197 198 202 200 199 198 197 201 203 202 200 202 204 207 205 206 211 212 217 219 218 217 205 202 205 210
222 221 230 239 242 248 262 255 248 251 256 262 244 264 201 182 206 204 198 198 199 196 196 197 198 199 200 198 197 196 198 202 203 208 211 216 221 219 216 212 203 215 208 215
238 230 236 242 241 231 219 219 223 236 246 249 251 263 255 210 232 214 191 194 194 192 191 190 192 192 194 191 192 190 190 197 200 205 211 214 216 219 220 215 208 213 210 209
223 223 220 227 224 208 220 230 234 230 229 241 213 250 269 316 235 215 197 182 182 186 187 184 185 186 189 189 189 188 185 193 197 204 211 213 216 217 218 220 216 225 220 210
218 216 208 214 232 226 223 239 250 260 260 246 198 243 238 161 177 193 184 164 166 173 177 179 179 180 183 185 187 189 189 197 198 203 210 214 216 219 220 221 229 224 229 219
227 219 194 209 227 238 230 235 255 264 265 267 246 231 219 196 199 184 166 157 158 161 160 168 172 173 175 181 187 189 192 198 200 202 206 212 215 224 224 220 227 226 223 213
241 235 213 201 212 221 247 245 242 249 255 259 247 241 238 205 206 188 176 164 152 155 157 156 157 161 166 174 178 185 190 194 195 197 205 204 209 214 218 222 220 226 221 219
240 236 221 207 218 222 213 225 237 249 257 263 265 257 198 224 214 199 181 160 150 154 153 150 147 151 153 158 166 177 187 192 196 202 206 208 207 208 211 216 219 219 222 220
227 237 234 222 218 241 235 234 235 244 247 253 269 268 120 191 201 185 168 153 153 154 149 145 139 137 142 149 158 167 181 191 196 199 203 206 208 211 213 214 217 219 222 225
220 234 230 221 207 207 225 229 237 249 251 252 259 255 152 162 180 173 166 160 160 157 151 145 139 139 141 143 153 170 185 190 189 189 201 205 210 213 218 222 220 219 219 224
239 239 240 244 240 219 222 230 236 244 249 252 254 261 244 225 217 196 177 173 170 164 158 155 150 148 144 145 151 171 190 193 195 192 200 205 217 221 222 223 222 222 221 220
234 240 242 252 255 247 241 237 233 240 252 261 264 258 257 260 228 202 188 179 175 171 169 167 165 157 156 151 150 156 166 178 192 197 209 213 222 226 227 225 223 222 222 222
240 248 244 243 242 243 246 243 240 241 248 253 259 261 266 262 219 196 187 185 182 179 176 174 173 169 170 166 165 161 166 170 185 199 213 216 222 224 225 223 219 220 222 224
231 237 244 243 234 240 243 240 240 243 245 248 252 254 254 244 231 212 196 192 187 184 183 184 183 182 180 178 175 179 178 177 184 194 204 214 223 230 228 220 213 216 220 222
232 236 238 246 233 241 244 238 240 244 250 255 259 257 255 256 245 224 211 197 189 188 190 191 192 188 187 181 176 180 179 182 189 195 204 219 226 228 232 232 223 220 218 223
228 225 236 241 239 242 232 218 230 240 246 261 258 252 254 255 230 212 204 205 200 195 196 194 193 188 181 182 179 183 186 185 196 202 214 222 222 224 232 238 234 232 228 228
208 217 231 236 247 247 236 192 238 248 237 258 266 257 255 241 238 224 189 201 199 191 186 184 183 180 178 179 179 185 190 192 201 209 220 227 230 229 232 238 240 240 238 240
196 209 226 237 244 247 248 224 207 231 242 339 295 273 256 243 278 317 238 195 187 183 178 177 177 180 176 174 179 191 195 208 210 207 216 219 222 229 233 241 245 250 248 248
219 217 219 232 241 239 144 192 223 274 357 332 316 298 290 292 285 306 188 176 170 172 176 175 176 181 177 179 180 187 198 202 197 200 210 218 221 229 214 220 233 237 243 240
231 247 241 235 235 132 150 173 176 319 312 319 321 319 308 295 284 253 159 161 165 167 173 179 177 172 176 183 188 192 191 189 194 209 217 223 231 234 232 226 227 231 232 246
216 253 243 240 218 201 195 202 273 316 316 317 317 309 298 286 275 216 178 166 166 168 170 175 175 175 180 189 197 189 183 189 193 208 215 212 218 223 219 239 236 238 246 252
247 218 229 237 234 246 220 232 295 316 317 318 319 318 308 293 274 222 178 160 159 158 161 168 173 176 181 186 197 188 184 190 202 218 225 220 221 218 224 231 259 253 257 279
236 234 238 247 248 262 258 287 303 298 300 303 310 326 334 331 306 225 171 150 154 158 161 161 164 174 179 180 190 192 193 198 206 215 230 232 229 231 242 236 222 50 28 116
Height
1503 1502 1500 1498 1496 1498 1499 1500 1501 1499 1497 1499 1500 1501 1501 1507 1510 1512 1515 1518 1521 1523 1526 1528 1530 1532 1534 1535 1536 1538 1539 1540 1541 1543 1544 1545 1545 1546 1547 1547 1547 1547 1547 1548
1500 1499 1495 1494 1496 1498 1499 1501 1500 1497 1497 1500 1499 1499 1498 1503 1506 1509 1512 1515 1518 1521 1524 1526 1528 1530 1531 1533 1534 1536 1537 1539 1540 1541 1542 1543 1544 1545 1545 1546 1546 1546 1546 1547
1497 1493 1494 1496 1497 1499 1498 1498 1498 1499 1497 1497 1499 1500 1498 1500 1504 1508 1510 1513 1515 1518 1521 1523 1525 1527 1529 1530 1532 1533 1535 1536 1538 1539 1541 1542 1542 1543 1544 1544 1545 1545 1545 1546
1492 1491 1494 1495 1495 1495 1498 1492 1495 1497 1499 1498 1498 1505 1497 1495 1499 1503 1506 1509 1512 1515 1518 1520 1522 1524 1526 1528 1529 1531 1532 1534 1535 1537 1539 1539 1540 1541 1542 1543 1543 1544 1544 1545
1490 1490 1493 1495 1492 1492 1492 1492 1494 1495 1496 1498 1496 1500 1496 1492 1497 1498 1501 1505 1508 1511 1514 1517 1519 1521 1523 1525 1526 1528 1529 1531 1532 1534 1536 1537 1538 1539 1540 1541 1541 1542 1542 1543
1487 1488 1489 1489 1490 1491 1492 1494 1494 1493 1493 1507 1498 1501 1500 1489 1493 1494 1497 1502 1505 1508 1511 1514 1517 1519 1520 1522 1523 1525 1526 1527 1529 1531 1533 1534 1535 1537 1538 1538 1539 1540 1540 1540
1489 1486 1487 1488 1490 1490 1491 1496 1505 1508 1506 1504 1492 1498 1497 1488 1490 1493 1496 1499 1503 1506 1508 1511 1514 1516 1517 1519 1520 1522 1523 1524 1526 1527 1529 1531 1532 1533 1534 1536 1537 1537 1538 1538
1492 1492 1484 1485 1487 1488 1488 1490 1505 1514 1509 1497 1495 1497 1490 1487 1490 1493 1496 1498 1501 1503 1505 1508 1511 1513 1514 1516 1518 1519 1521 1521 1522 1524 1526 1527 1529 1531 1532 1533 1534 1535 1535 1536
1485 1487 1481 1483 1484 1484 1487 1486 1482 1491 1494 1499 1491 1488 1486 1486 1489 1492 1494 1497 1499 1502 1504 1506 1508 1510 1511 1513 1515 1517 1518 1519 1520 1521 1522 1524 1525 1527 1529 1529 1531 1532 1532 1532
1478 1487 1480 1482 1483 1484 1482 1481 1485 1490 1507 1508 1496 1490 1486 1485 1487 1488 1492 1495 1498 1500 1502 1505 1506 1508 1509 1511 1513 1514 1516 1516 1517 1518 1519 1521 1522 1524 1525 1526 1527 1528 1529 1529
1478 1485 1482 1481 1483 1482 1485 1485 1484 1484 1488 1501 1502 1491 1476 1480 1483 1486 1489 1493 1496 1499 1501 1503 1505 1507 1508 1510 1511 1512 1513 1514 1515 1516 1517 1518 1519 1521 1522 1523 1524 1525 1526 1526
1479 1479 1483 1479 1477 1478 1478 1480 1482 1491 1493 1490 1492 1488 1474 1478 1481 1485 1489 1493 1496 1498 1500 1502 1504 1506 1507 1508 1509 1510 1512 1512 1513 1514 1514 1515 1516 1518 1519 1520 1521 1522 1522 1523
1479 1481 1490 1487 1484 1481 1479 1478 1478 1478 1482 1486 1490 1486 1475 1479 1482 1486 1489 1492 1495 1497 1499 1502 1503 1504 1506 1507 1508 1509 1510 1511 1512 1512 1512 1513 1514 1515 1516 1517 1518 1519 1519 1520
1482 1478 1483 1486 1478 1474 1479 1478 1477 1479 1480 1482 1481 1479 1475 1477 1481 1484 1489 1492 1494 1496 1498 1500 1502 1503 1504 1505 1506 1507 1508 1509 1510 1510 1510 1511 1511 1512 1513 1514 1515 1515 1516 1517
1479 1478 1475 1473 1471 1471 1473 1475 1476 1478 1477 1479 1475 1474 1473 1474 1478 1483 1487 1490 1492 1494 1496 1498 1500 1502 1503 1504 1504 1505 1506 1506 1507 1507 1508 1508 1509 1510 1510 1511 1511 1512 1513 1513
1479 1478 1476 1477 1472 1471 1473 1471 1471 1473 1473 1474 1474 1473 1471 1475 1479 1482 1485 1488 1490 1492 1494 1496 1498 1499 1500 1501 1502 1502 1503 1504 1504 1505 1506 1506 1506 1507 1507 1507 1508 1508 1509 1510
1478 1480 1481 1476 1471 1472 1476 1468 1468 1468 1468 1470 1471 1470 1471 1474 1477 1480 1483 1485 1487 1489 1491 1493 1495 1497 1498 1499 1499 1500 1501 1502 1502 1503 1503 1503 1503 1504 1504 1504 1504 1505 1505 1506
1481 1481 1478 1475 1478 1487 1467 1460 1462 1465 1466 1466 1467 1469 1472 1474 1477 1479 1481 1483 1485 1487 1489 1491 1493 1494 1496 1496 1497 1498 1499 1500 1500 1500 1500 1501 1501 1501 1501 1501 1501 1501 1502 1502
1476 1479 1477 1474 1475 1470 1463 1462 1463 1466 1467 1467 1468 1469 1472 1474 1475 1476 1479 1481 1483 1484 1486 1488 1490 1492 1493 1494 1495 1495 1496 1497 1498 1498 1498 1498 1498 1498 1498 1497 1498 1498 1498 1499
1474 1476 1477 1475 1478 1475 1464 1462 1465 1467 1469 1469 1469 1470 1471 1472 1470 1472 1476 1478 1480 1482 1484 1486 1487 1489 1490 1491 1492 1493 1494 1494 1495 1495 1495 1495 1495 1495 1495 1495 1495 1495 1495 1495
1473 1475 1474 1472 1472 1462 1462 1463 1465 1472 1470 1470 1470 1471 1471 1472 1472 1474 1475 1477 1478 1480 1482 1483 1485 1486 1487 1488 1489 1490 1491 1492 1492 1492 1492 1492 1493 1493 1492 1492 1492 1492 1492 1493
1465 1466 1470 1469 1472 1467 1464 1464 1466 1468 1470 1471 1471 1471 1472 1472 1473 1473 1474 1475 1476 1477 1479 1481 1482 1483 1485 1486 1487 1487 1488 1489 1489 1489 1490 1490 1490 1490 1490 1490 1489 1489 1490 1490
1463 1462 1459 1461 1464 1466 1466 1467 1469 1470 1471 1471 1471 1471 1472 1471 1471 1472 1473 1473 1474 1475 1477 1478 1479 1480 1482 1483 1484 1485 1486 1486 1486 1487 1487 1487 1487 1487 1488 1487 1487 1487 1487 1487
1463 1465 1463 1463 1462 1465 1467 1468 1469 1470 1471 1471 1471 1471 1470 1470 1470 1470 1471 1472 1473 1473 1475 1476 1477 1478 1479 1481 1482 1483 1483 1484 1484 1484 1484 1484 1484 1485 1484 1485 1485 1484 1484 1484
1463 1465 1463 1464 1463 1466 1466 1468 1469 1470 1470 1470 1470 1470 1469 1469 1469 1469 1469 1470 1471 1472 1473 1474 1474 1475 1477 1478 1479 1481 1481 1481 1481 1482 1482 1482 1482 1482 1482 1482 1482 1482 1481 1481
1463 1463 1463 1461 1464 1466 1466 1467 1468 1469 1468 1468 1468 1468 1468 1468 1467 1468 1468 1468 1469 1470 1471 1472 1473 1474 1475 1476 1477 1478 1479 1479 1479 1479 1479 1480 1480 1479 1479 1479 1479 1478 1478 1477